Overview Statistics Trail Chart Weather Telemetry Raw packets
 

This is the latest recevied weather packets stored in our database for station/object SV1JSO-13. If no packets are shown the sender has not sent any weather packets the latest 10 day(s).

<< 79 80 81 82 83 84 85 >>
Time Temp. Humidity Pressure Rain* Wind** Luminosity Snow
1788091200 31.11° C 41% 1009.1 hPa 0 mm - 679 W/m² -
1788090900 30.56° C 40% 1009.1 hPa 0 mm - 680 W/m² -
1788090600 30.56° C 39% 1009.2 hPa 0 mm - 684 W/m² -
1788090300 30.56° C 39% 1009.2 hPa 0 mm - 691 W/m² -
1788090000 30° C 39% 1009.2 hPa 0 mm - 696 W/m² -
1788089700 30° C 41% 1009.2 hPa 0 mm - 703 W/m² -
1788089400 30° C 40% 1009.3 hPa 0 mm - 709 W/m² -
1788089100 30° C 40% 1009.3 hPa 0 mm - 714 W/m² -
1788088800 30° C 40% 1009.5 hPa 0 mm - 718 W/m² -
1788088500 30° C 38% 1009.3 hPa 0 mm - 719 W/m² -
1788088201 30° C 39% 1009.5 hPa 0 mm - 722 W/m² -
1788087915 30° C 40% 1009.5 hPa 0 mm - 724 W/m² -
1788087601 30° C 39% 1009.6 hPa 0 mm - 724 W/m² -
1788087300 30° C 38% 1009.5 hPa 0 mm - 725 W/m² -
1788087000 30° C 39% 1009.6 hPa 0 mm - 721 W/m² -
1788086700 30° C 39% 1009.6 hPa 0 mm - 726 W/m² -
1788086400 30° C 39% 1009.7 hPa 0 mm - 723 W/m² -
1788086100 30.56° C 39% 1009.8 hPa 0 mm - 722 W/m² -
1788085800 30° C 39% 1009.9 hPa 0 mm - 723 W/m² -
1788085500 29.44° C 44% 1010 hPa 0 mm - 722 W/m² -
1788085201 29.44° C 44% 1009.9 hPa 0 mm - 720 W/m² -
1788084901 29.44° C 40% 1009.9 hPa 0 mm - 722 W/m² -
1788084600 30° C 40% 1009.9 hPa 0 mm - 723 W/m² -
1788084300 29.44° C 40% 1010.1 hPa 0 mm - 718 W/m² -
1788084000 30° C 41% 1010 hPa 0 mm - 719 W/m² -

* Rain latest hour (hover to see other rain measurements)
** Current wind speed in m/s (hover to see current wind gust speed)